Location: Arcones
(41.1182°N, 3.7238°W)
Time: 02:18:18
(UTC+00:00)

Cosmos 1898 Rocket - Pass Details

Date: 11 December 2025
Orbit: 749 x 779 km, 74.0° (Epoch: 14 January)

Event Time Altitude Azimuth Distance (km) Brightness Sun altitude
Rises 18:20:14 0° 188° (S) 3,180 7.0 -17.1°
Reaches altitude 10° 18:22:36 10° 185° (S) 2,259 6.2 -17.5°
Maximum altitude 18:27:38 62° 106° (ESE) 842 3.4 -18.4°
Enters shadow 18:30:25 27° 34° (NNE) 1,437 4.5 -18.9°
